Simultaneous Nadir Overpasses (SNOs) Predictions

Prediction of SNOs between AQUA and METOP-A Satellite Orbit:

Table of predicted SNOs for the next 14.0 days since TLE Epoch: 1/30/2021
Index Date (AQUA) Time (AQUA) Lat,Lon (AQUA) SZA (AQUA ) Date (METOP-A) Time (METOP-A) Lat,Lon (METOP-A) SZA (METOP-A ) Distance(km) Time Diff (sec)
1 02/01/2021 15:56:33 -76.98, 106.32 85.58 02/01/2021 15:55:40 -77.01, 106.31 85.54 2.84 53
2 02/01/2021 16:46:01 77.04, -86.26 94.48 02/01/2021 16:46:19 77.05, -86.21 94.48 1.51 18
3 02/04/2021 11:30:50 -77.02, 172.61 86.36 02/04/2021 11:30:02 -77.03, 172.72 86.35 2.68 48
4 02/04/2021 12:20:17 77.04, -19.81 93.66 02/04/2021 12:20:41 77.07, -19.80 93.67 2.88 24
5 02/07/2021 07:05:05 -77.02,-120.94 87.22 02/07/2021 07:04:23 -77.04,-120.88 87.19 2.99 42
6 02/07/2021 07:54:33 77.09, 46.45 92.85 02/07/2021 07:55:02 77.08, 46.60 92.83 3.77 29
7 02/10/2021 02:39:21 -77.02, -54.52 88.11 02/10/2021 02:38:45 -77.06, -54.48 88.08 3.62 36
8 02/10/2021 03:28:49 77.09, 112.86 91.96 02/10/2021 03:29:24 77.09, 112.99 91.94 3.10 35
9 02/12/2021 22:13:37 -77.04, 11.88 89.03 02/12/2021 22:13:07 -77.07, 11.90 88.99 3.53 30



Historial Predications of SNOs between AQUA and METOP-A
